AAL2200 KDFW-KJAX

Flight info

Callsign AAL2200
Flight time 1h 53m
Altitude 37000
Route FORCK3 FORCK DCT HAWES DCT WINAP DCT KT15M DCT MGM DCT DUCHY OHDEA2
Aircraft B738/M-SDE2E3FGHIRWXY/LB1

Departure

Time 2026-05-04 13:28
Airport Dallas Fort Worth International Airport (KDFW)

Arrival

Time 2026-05-04 15:21
Airport Jacksonville International Airport (KJAX)
Time Latitude Longitude Altitude Speed Heading
2026-05-04 12:51 32.90004 -97.04529 598 ft 0 kts 178°
2026-05-04 13:17 32.90014 -97.04529 598 ft 3 kts 178°
2026-05-04 13:17 32.90033 -97.04529 598 ft 3 kts 178°
2026-05-04 13:17 32.90052 -97.04530 598 ft 3 kts 178°
2026-05-04 13:18 32.90070 -97.04526 598 ft 3 kts 232°
2026-05-04 13:18 32.90075 -97.04511 598 ft 0 kts 270°
2026-05-04 13:20 32.90075 -97.04538 598 ft 13 kts 269°
2026-05-04 13:20 32.90078 -97.04687 597 ft 15 kts 275°
2026-05-04 13:20 32.90098 -97.04755 597 ft 11 kts 336°
2026-05-04 13:21 32.90192 -97.04762 596 ft 19 kts
2026-05-04 13:21 32.90350 -97.04761 596 ft 25 kts
2026-05-04 13:21 32.90513 -97.04761 596 ft 21 kts
2026-05-04 13:21 32.90659 -97.04760 596 ft 21 kts
2026-05-04 13:22 32.90801 -97.04760 597 ft 20 kts
2026-05-04 13:22 32.90885 -97.04752 600 ft 11 kts 27°
2026-05-04 13:22 32.90908 -97.04652 598 ft 15 kts 90°
2026-05-04 13:22 32.90907 -97.04474 598 ft 30 kts 90°
2026-05-04 13:23 32.90906 -97.04236 609 ft 24 kts 90°
2026-05-04 13:23 32.90905 -97.04051 608 ft 22 kts 90°
2026-05-04 13:23 32.90905 -97.03861 607 ft 23 kts 90°
2026-05-04 13:23 32.90903 -97.03639 587 ft 31 kts 89°
2026-05-04 13:24 32.90903 -97.03463 585 ft 16 kts 90°
2026-05-04 13:24 32.90903 -97.03335 585 ft 15 kts 89°
2026-05-04 13:24 32.90902 -97.03212 579 ft 11 kts 83°
2026-05-04 13:25 32.91025 -97.03187 581 ft 15 kts 359°
2026-05-04 13:25 32.91146 -97.03186 578 ft 22 kts
2026-05-04 13:25 32.91301 -97.03185 580 ft 14 kts
2026-05-04 13:25 32.91401 -97.03185 577 ft 16 kts 360°
2026-05-04 13:26 32.91477 -97.03166 575 ft 12 kts 45°
2026-05-04 13:26 32.91488 -97.03118 577 ft 0 kts 94°
2026-05-04 13:26 32.91487 -97.03061 577 ft 2 kts 90°
2026-05-04 13:26 32.91483 -97.03010 581 ft 12 kts 112°
2026-05-04 13:27 32.91404 -97.02989 576 ft 0 kts 181°
2026-05-04 13:27 32.91383 -97.02989 576 ft 24 kts 180°
2026-05-04 13:27 32.90911 -97.02993 576 ft 111 kts 180°
2026-05-04 13:27 32.89876 -97.02997 699 ft 174 kts 180°
2026-05-04 13:28 32.88580 -97.03015 1383 ft 198 kts 182°
2026-05-04 13:28 32.87100 -97.03052 1995 ft 221 kts 184°
2026-05-04 13:28 32.85589 -97.03091 3136 ft 214 kts 184°
2026-05-04 13:28 32.84078 -97.03044 3780 ft 220 kts 183°
2026-05-04 13:29 32.82521 -97.03002 4385 ft 227 kts 184°
2026-05-04 13:29 32.80910 -97.02979 4922 ft 235 kts 184°
2026-05-04 13:29 32.79273 -97.02972 5557 ft 240 kts 184°
2026-05-04 13:29 32.77586 -97.02976 6116 ft 246 kts 184°
2026-05-04 13:30 32.75855 -97.02984 6728 ft 249 kts 184°
2026-05-04 13:30 32.74103 -97.02995 7253 ft 256 kts 184°
2026-05-04 13:30 32.72296 -97.02833 7776 ft 266 kts 167°
2026-05-04 13:30 32.70735 -97.01617 8333 ft 278 kts 130°
2026-05-04 13:31 32.69926 -96.99508 8860 ft 288 kts 104°
2026-05-04 13:31 32.69460 -96.97138 9296 ft 297 kts 103°
2026-05-04 13:31 32.68971 -96.94686 9652 ft 314 kts 102°
2026-05-04 13:31 32.68774 -96.92119 10262 ft 320 kts 83°
2026-05-04 13:32 32.69053 -96.89419 10549 ft 342 kts 81°
2026-05-04 13:32 32.69310 -96.86540 10988 ft 356 kts 83°
2026-05-04 13:32 32.69523 -96.83575 11634 ft 364 kts 83°
2026-05-04 13:32 32.69728 -96.80549 12312 ft 369 kts 82°
2026-05-04 13:33 32.70121 -96.77525 13014 ft 372 kts 73°
2026-05-04 13:33 32.70759 -96.74534 13702 ft 376 kts 70°
2026-05-04 13:33 32.71466 -96.71525 14378 ft 379 kts 70°
2026-05-04 13:33 32.72177 -96.68492 15007 ft 384 kts 70°
2026-05-04 13:34 32.72643 -96.66458 15410 ft 387 kts 71°
2026-05-04 13:34 32.73561 -96.62327 16227 ft 394 kts 72°
2026-05-04 13:34 32.74248 -96.59149 16832 ft 399 kts 72°
2026-05-04 13:34 32.74703 -96.57022 17244 ft 402 kts 72°
2026-05-04 13:35 32.75390 -96.53783 17899 ft 406 kts 72°
2026-05-04 13:35 32.76785 -96.47180 19009 ft 415 kts 72°
2026-05-04 13:35 32.77489 -96.43841 19604 ft 418 kts 72°
2026-05-04 13:36 32.78198 -96.40478 20167 ft 421 kts 72°
2026-05-04 13:36 32.78911 -96.37093 20714 ft 424 kts 72°
2026-05-04 13:36 32.79630 -96.33675 21253 ft 427 kts 72°
2026-05-04 13:36 32.80211 -96.30233 21772 ft 433 kts 78°
2026-05-04 13:37 32.80596 -96.26659 22309 ft 437 kts 81°
2026-05-04 13:37 32.80914 -96.23048 22822 ft 441 kts 81°
2026-05-04 13:37 32.81230 -96.19404 23329 ft 444 kts 81°
2026-05-04 13:37 32.81565 -96.15746 23789 ft 447 kts 80°
2026-05-04 13:38 32.81923 -96.12055 24185 ft 451 kts 80°
2026-05-04 13:38 32.82298 -96.08341 24562 ft 455 kts 79°
2026-05-04 13:38 32.82684 -96.04596 24932 ft 459 kts 79°
2026-05-04 13:38 32.83075 -96.00809 25323 ft 462 kts 79°
2026-05-04 13:39 32.83466 -95.97005 25703 ft 466 kts 79°
2026-05-04 13:39 32.83859 -95.93162 26067 ft 469 kts 79°
2026-05-04 13:39 32.84249 -95.89335 26423 ft 473 kts 79°
2026-05-04 13:39 32.84644 -95.85436 26779 ft 476 kts 79°
2026-05-04 13:40 32.85042 -95.81507 27139 ft 479 kts 79°
2026-05-04 13:40 32.85442 -95.77545 27499 ft 483 kts 79°
2026-05-04 13:40 32.85844 -95.73565 27850 ft 486 kts 79°
2026-05-04 13:40 32.86246 -95.69563 28193 ft 489 kts 79°
2026-05-04 13:41 32.86650 -95.65527 28524 ft 492 kts 79°
2026-05-04 13:41 32.87055 -95.61472 28873 ft 495 kts 79°
2026-05-04 13:41 32.87460 -95.57391 29199 ft 498 kts 79°
2026-05-04 13:42 32.88271 -95.49198 29819 ft 504 kts 79°
2026-05-04 13:42 32.88680 -95.45040 30125 ft 507 kts 79°
2026-05-04 13:42 32.89090 -95.40860 30373 ft 510 kts 78°
2026-05-04 13:42 32.89501 -95.36653 30615 ft 513 kts 78°
2026-05-04 13:43 32.89913 -95.32420 30878 ft 515 kts 78°
2026-05-04 13:43 32.90325 -95.28173 31143 ft 517 kts 78°
2026-05-04 13:43 32.90732 -95.23961 31389 ft 519 kts 78°
2026-05-04 13:43 32.91145 -95.19678 31624 ft 522 kts 78°
2026-05-04 13:44 32.91557 -95.15380 31863 ft 524 kts 77°
2026-05-04 13:44 32.91969 -95.11065 32173 ft 524 kts 77°
2026-05-04 13:44 32.92378 -95.06753 32518 ft 523 kts 77°
2026-05-04 13:44 32.92785 -95.02452 32848 ft 523 kts 77°
2026-05-04 13:45 32.93192 -94.98148 33135 ft 523 kts 76°
2026-05-04 13:45 32.93598 -94.93841 33433 ft 523 kts 77°
2026-05-04 13:45 32.94001 -94.89542 33832 ft 521 kts 77°
2026-05-04 13:45 32.94398 -94.85269 34185 ft 519 kts 76°
2026-05-04 13:46 32.94791 -94.81052 34399 ft 519 kts 76°
2026-05-04 13:46 32.95190 -94.76768 34577 ft 521 kts 76°
2026-05-04 13:46 32.95589 -94.72474 34801 ft 521 kts 76°
2026-05-04 13:46 32.95984 -94.68186 35078 ft 520 kts 76°
2026-05-04 13:47 32.96376 -94.63902 35340 ft 519 kts 76°
2026-05-04 13:47 32.96767 -94.59625 35536 ft 520 kts 75°
2026-05-04 13:47 32.97158 -94.55340 35801 ft 519 kts 76°
2026-05-04 13:47 32.97543 -94.51077 36193 ft 515 kts 76°
2026-05-04 13:48 32.97923 -94.46846 36477 ft 514 kts 76°
2026-05-04 13:48 32.98305 -94.42614 36653 ft 515 kts 75°
2026-05-04 13:48 32.98689 -94.38357 36812 ft 516 kts 75°
2026-05-04 13:48 32.99069 -94.34114 37006 ft 516 kts 75°
2026-05-04 13:49 32.99799 -94.25557 37027 ft 523 kts 79°
2026-05-04 13:49 32.99788 -94.16903 37044 ft 525 kts 86°
2026-05-04 13:50 32.99435 -94.08264 37027 ft 518 kts 86°
2026-05-04 13:50 32.99152 -93.99717 37024 ft 513 kts 85°
2026-05-04 13:51 32.98958 -93.91236 37054 ft 518 kts 84°
2026-05-04 13:51 32.98783 -93.82587 37049 ft 524 kts 85°
2026-05-04 13:52 32.98491 -93.69485 37058 ft 528 kts 85°
2026-05-04 13:53 32.98282 -93.60786 37036 ft 528 kts 85°
2026-05-04 13:53 32.98066 -93.52054 37037 ft 526 kts 85°
2026-05-04 13:54 32.97735 -93.39016 37044 ft 523 kts 85°
2026-05-04 13:55 32.97395 -93.26065 37051 ft 519 kts 85°
2026-05-04 13:55 32.97043 -93.13193 37054 ft 517 kts 85°
2026-05-04 13:56 32.96804 -93.04702 37063 ft 515 kts 86°
2026-05-04 13:57 32.96433 -92.91889 37053 ft 515 kts 86°
2026-05-04 13:58 32.95579 -92.74851 37063 ft 520 kts 91°
2026-05-04 13:58 32.94425 -92.61984 37066 ft 522 kts 91°
2026-05-04 13:59 32.93681 -92.53365 37066 ft 523 kts 91°
2026-05-04 14:00 32.92597 -92.40397 37067 ft 525 kts 90°
2026-05-04 14:00 32.91501 -92.27390 37089 ft 527 kts 91°
2026-05-04 14:01 32.90765 -92.18765 37084 ft 528 kts 91°
2026-05-04 14:02 32.89637 -92.05726 37089 ft 528 kts 91°
2026-05-04 14:02 32.88878 -91.97028 37093 ft 528 kts 91°
2026-05-04 14:03 32.88113 -91.88333 37108 ft 528 kts 91°
2026-05-04 14:03 32.87343 -91.79647 37064 ft 527 kts 91°
2026-05-04 14:04 32.86185 -91.66720 37084 ft 525 kts 91°
2026-05-04 14:04 32.85404 -91.58086 37084 ft 524 kts 91°
2026-05-04 14:05 32.84223 -91.45150 37071 ft 523 kts 91°
2026-05-04 14:06 32.83435 -91.36598 37071 ft 523 kts 92°
2026-05-04 14:06 32.82636 -91.27999 37059 ft 523 kts 92°
2026-05-04 14:07 32.81833 -91.19412 37058 ft 523 kts 92°
2026-05-04 14:07 32.81023 -91.10813 37070 ft 523 kts 92°
2026-05-04 14:08 32.80205 -91.02197 37079 ft 524 kts 92°
2026-05-04 14:08 32.79380 -90.93579 37111 ft 525 kts 92°
2026-05-04 14:09 32.78132 -90.80648 37104 ft 527 kts 92°
2026-05-04 14:10 32.76861 -90.67635 37099 ft 529 kts 92°
2026-05-04 14:10 32.76005 -90.58942 37095 ft 530 kts 93°
2026-05-04 14:11 32.75147 -90.50297 37097 ft 530 kts 93°
2026-05-04 14:11 32.73838 -90.37220 37093 ft 531 kts 93°
2026-05-04 14:12 32.72958 -90.28511 37083 ft 531 kts 93°
2026-05-04 14:13 32.71633 -90.15508 37103 ft 530 kts 93°
2026-05-04 14:13 32.70740 -90.06817 37102 ft 529 kts 93°
2026-05-04 14:14 32.69843 -89.98145 37080 ft 529 kts 94°
2026-05-04 14:14 32.68492 -89.85198 37066 ft 528 kts 94°
2026-05-04 14:15 32.66664 -89.67885 37035 ft 528 kts 94°
2026-05-04 14:16 32.65279 -89.54912 37039 ft 528 kts 94°
2026-05-04 14:17 32.63885 -89.41984 37031 ft 528 kts 94°
2026-05-04 14:18 32.62548 -89.29008 37056 ft 528 kts 92°
2026-05-04 14:19 32.60982 -89.11674 37066 ft 527 kts 93°
2026-05-04 14:19 32.60178 -89.03072 37053 ft 527 kts 93°
2026-05-04 14:20 32.59357 -88.94435 37073 ft 526 kts 93°
2026-05-04 14:20 32.58529 -88.85798 37074 ft 526 kts 93°
2026-05-04 14:21 32.57286 -88.72915 37106 ft 526 kts 93°
2026-05-04 14:21 32.56448 -88.64302 37118 ft 526 kts 93°
2026-05-04 14:22 32.55747 -88.57146 37121 ft 525 kts 94°
2026-05-04 14:22 32.54898 -88.48538 37118 ft 525 kts 94°
2026-05-04 14:23 32.53614 -88.35627 37123 ft 525 kts 94°
2026-05-04 14:24 32.52755 -88.27074 37123 ft 525 kts 94°
2026-05-04 14:24 32.51885 -88.18462 37129 ft 525 kts 94°
2026-05-04 14:25 32.51011 -88.09873 37125 ft 525 kts 94°
2026-05-04 14:25 32.49617 -87.96969 37115 ft 527 kts 97°
2026-05-04 14:26 32.48278 -87.88425 37116 ft 527 kts 99°
2026-05-04 14:26 32.46843 -87.79949 37100 ft 528 kts 99°
2026-05-04 14:27 32.45432 -87.71412 37099 ft 528 kts 99°
2026-05-04 14:27 32.44052 -87.62876 37101 ft 528 kts 99°
2026-05-04 14:28 32.42675 -87.54334 37084 ft 528 kts 99°
2026-05-04 14:28 32.41296 -87.45836 37081 ft 528 kts 99°
2026-05-04 14:29 32.38502 -87.28761 37083 ft 527 kts 99°
2026-05-04 14:30 32.37098 -87.20240 37060 ft 527 kts 99°
2026-05-04 14:31 32.34984 -87.07479 37057 ft 526 kts 99°
2026-05-04 14:32 32.32158 -86.90549 37151 ft 526 kts 100°
2026-05-04 14:32 32.30733 -86.82064 37072 ft 526 kts 100°
2026-05-04 14:33 32.29304 -86.73593 37095 ft 524 kts 100°
2026-05-04 14:33 32.27879 -86.65186 37098 ft 524 kts 100°
2026-05-04 14:34 32.26441 -86.56729 37133 ft 525 kts 100°
2026-05-04 14:34 32.24996 -86.48270 37150 ft 525 kts 100°
2026-05-04 14:35 32.23544 -86.39805 37140 ft 525 kts 100°
2026-05-04 14:35 32.22096 -86.31394 37150 ft 525 kts 100°
2026-05-04 14:36 32.20876 -86.22888 37125 ft 525 kts 96°
2026-05-04 14:36 32.19855 -86.14350 37124 ft 525 kts 96°
2026-05-04 14:37 32.18810 -86.05814 37128 ft 525 kts 97°
2026-05-04 14:37 32.17722 -85.97356 37124 ft 525 kts 97°
2026-05-04 14:38 32.16600 -85.88827 37126 ft 525 kts 97°
2026-05-04 14:38 32.15471 -85.80307 37130 ft 525 kts 97°
2026-05-04 14:39 32.14339 -85.71792 37131 ft 525 kts 97°
2026-05-04 14:39 32.13205 -85.63282 37131 ft 525 kts 97°
2026-05-04 14:40 32.11501 -85.50587 37132 ft 524 kts 97°
2026-05-04 14:40 32.10353 -85.42089 37151 ft 524 kts 97°
2026-05-04 14:41 32.09200 -85.33593 37132 ft 524 kts 97°
2026-05-04 14:42 32.06887 -85.16694 37146 ft 523 kts 97°
2026-05-04 14:42 32.05719 -85.08223 37153 ft 523 kts 98°
2026-05-04 14:43 32.04546 -84.99760 37161 ft 522 kts 98°
2026-05-04 14:43 32.03376 -84.91357 37152 ft 522 kts 98°
2026-05-04 14:44 32.02192 -84.82901 37144 ft 522 kts 98°
2026-05-04 14:44 32.01004 -84.74460 37152 ft 521 kts 98°
2026-05-04 14:45 31.99813 -84.66032 37163 ft 521 kts 98°
2026-05-04 14:45 31.98622 -84.57653 37144 ft 521 kts 98°
2026-05-04 14:46 31.97422 -84.49246 37150 ft 520 kts 98°
2026-05-04 14:46 31.96216 -84.40840 37151 ft 519 kts 98°
2026-05-04 14:47 31.95672 -84.37059 37141 ft 519 kts 98°
2026-05-04 14:47 31.94710 -84.30399 37138 ft 519 kts 98°
2026-05-04 14:48 31.93496 -84.22029 37137 ft 517 kts 98°
2026-05-04 14:48 31.92284 -84.13709 36807 ft 523 kts 98°
2026-05-04 14:49 31.91055 -84.05313 36410 ft 520 kts 98°
2026-05-04 14:49 31.90440 -84.01135 35938 ft 518 kts 99°
2026-05-04 14:49 31.89828 -83.96980 35606 ft 513 kts 99°
2026-05-04 14:50 31.89218 -83.92852 35203 ft 510 kts 99°
2026-05-04 14:50 31.88612 -83.88754 34817 ft 506 kts 99°
2026-05-04 14:50 31.88008 -83.84685 34419 ft 503 kts 99°
2026-05-04 14:50 31.87407 -83.80641 34003 ft 500 kts 99°
2026-05-04 14:51 31.86817 -83.76682 33570 ft 496 kts 99°
2026-05-04 14:51 31.86221 -83.72688 33156 ft 492 kts 99°
2026-05-04 14:51 31.85629 -83.68730 32773 ft 488 kts 99°
2026-05-04 14:51 31.85042 -83.64816 32394 ft 484 kts 100°
2026-05-04 14:52 31.84459 -83.60933 32015 ft 480 kts 100°
2026-05-04 14:52 31.83880 -83.57089 31634 ft 476 kts 100°
2026-05-04 14:52 31.83304 -83.53273 31271 ft 472 kts 100°
2026-05-04 14:52 31.82732 -83.49488 30905 ft 468 kts 100°
2026-05-04 14:53 31.82164 -83.45739 30530 ft 464 kts 101°
2026-05-04 14:53 31.81599 -83.42019 30183 ft 460 kts 101°
2026-05-04 14:53 31.81037 -83.38323 29768 ft 456 kts 101°
2026-05-04 14:53 31.80481 -83.34678 29403 ft 451 kts 101°
2026-05-04 14:54 31.79929 -83.31066 29022 ft 446 kts 101°
2026-05-04 14:54 31.79389 -83.27541 28658 ft 442 kts 101°
2026-05-04 14:54 31.78846 -83.24001 28276 ft 438 kts 101°
2026-05-04 14:54 31.78307 -83.20491 27912 ft 434 kts 101°
2026-05-04 14:55 31.77771 -83.17008 27534 ft 430 kts 101°
2026-05-04 14:55 31.77240 -83.13562 27179 ft 426 kts 101°
2026-05-04 14:55 31.76712 -83.10147 26821 ft 423 kts 101°
2026-05-04 14:55 31.76188 -83.06757 26456 ft 420 kts 101°
2026-05-04 14:56 31.75666 -83.03389 26103 ft 417 kts 101°
2026-05-04 14:56 31.75148 -83.00050 25748 ft 414 kts 101°
2026-05-04 14:56 31.74638 -82.96777 25400 ft 411 kts 101°
2026-05-04 14:56 31.73965 -82.93534 25033 ft 407 kts 112°
2026-05-04 14:57 31.72648 -82.90635 24718 ft 399 kts 129°
2026-05-04 14:57 31.70837 -82.88226 24502 ft 388 kts 142°
2026-05-04 14:57 31.68803 -82.86174 24287 ft 383 kts 144°
2026-05-04 14:57 31.66777 -82.84166 24048 ft 380 kts 144°
2026-05-04 14:58 31.64754 -82.82156 23830 ft 382 kts 144°
2026-05-04 14:58 31.62718 -82.80121 23520 ft 386 kts 143°
2026-05-04 14:58 31.60685 -82.78073 23123 ft 384 kts 143°
2026-05-04 14:58 31.58670 -82.76034 22750 ft 381 kts 143°
2026-05-04 14:59 31.56672 -82.74008 22393 ft 378 kts 143°
2026-05-04 14:59 31.54709 -82.72018 22030 ft 376 kts 142°
2026-05-04 14:59 31.50778 -82.68034 21321 ft 371 kts 142°
2026-05-04 15:00 31.48832 -82.66065 20966 ft 368 kts 142°
2026-05-04 15:00 31.46894 -82.64106 20620 ft 366 kts 142°
2026-05-04 15:00 31.44966 -82.62167 20277 ft 364 kts 143°
2026-05-04 15:01 31.40945 -82.58637 19622 ft 358 kts 147°
2026-05-04 15:01 31.38918 -82.56948 19288 ft 357 kts 147°
2026-05-04 15:01 31.36917 -82.55282 18834 ft 359 kts 146°
2026-05-04 15:01 31.34886 -82.53581 18455 ft 359 kts 146°
2026-05-04 15:02 31.32855 -82.51871 18043 ft 358 kts 146°
2026-05-04 15:02 31.30840 -82.50169 17670 ft 356 kts 146°
2026-05-04 15:02 31.28841 -82.48478 17319 ft 353 kts 146°
2026-05-04 15:02 31.26856 -82.46797 16978 ft 351 kts 146°
2026-05-04 15:03 31.24884 -82.45127 16635 ft 348 kts 146°
2026-05-04 15:03 31.22930 -82.43473 16291 ft 346 kts 146°
2026-05-04 15:03 31.20986 -82.41828 15956 ft 344 kts 146°
2026-05-04 15:03 31.19054 -82.40194 15620 ft 341 kts 146°
2026-05-04 15:04 31.17136 -82.38573 15287 ft 340 kts 146°
2026-05-04 15:04 31.15249 -82.36978 14955 ft 338 kts 146°
2026-05-04 15:04 31.13349 -82.35374 14628 ft 336 kts 146°
2026-05-04 15:04 31.11458 -82.33778 14289 ft 335 kts 146°
2026-05-04 15:05 31.09574 -82.32188 13955 ft 333 kts 146°
2026-05-04 15:05 31.07699 -82.30608 13588 ft 331 kts 146°
2026-05-04 15:05 31.05838 -82.29041 13233 ft 329 kts 146°
2026-05-04 15:05 31.03967 -82.27520 12895 ft 326 kts 148°
2026-05-04 15:06 31.02067 -82.26092 12564 ft 324 kts 149°
2026-05-04 15:06 31.00177 -82.24676 12227 ft 321 kts 148°
2026-05-04 15:06 30.98311 -82.23264 11926 ft 318 kts 147°
2026-05-04 15:07 30.95044 -82.19907 11452 ft 308 kts 136°
2026-05-04 15:07 30.93563 -82.18168 11216 ft 304 kts 135°
2026-05-04 15:07 30.92084 -82.16429 10997 ft 301 kts 135°
2026-05-04 15:07 30.90599 -82.14700 10764 ft 301 kts 135°
2026-05-04 15:08 30.89116 -82.12987 10545 ft 300 kts 136°
2026-05-04 15:08 30.87631 -82.11285 10314 ft 298 kts 136°
2026-05-04 15:08 30.86154 -82.09601 10083 ft 295 kts 136°
2026-05-04 15:08 30.84695 -82.07943 9834 ft 291 kts 136°
2026-05-04 15:09 30.83738 -82.06859 9673 ft 289 kts 136°
2026-05-04 15:09 30.81825 -82.04694 9369 ft 284 kts 136°
2026-05-04 15:09 30.80890 -82.03639 9211 ft 282 kts 136°
2026-05-04 15:10 30.77129 -82.00948 8724 ft 277 kts 178°
2026-05-04 15:10 30.75229 -82.01161 8578 ft 273 kts 192°
2026-05-04 15:10 30.72100 -82.01923 8097 ft 282 kts 193°
2026-05-04 15:11 30.70170 -82.02417 7736 ft 284 kts 193°
2026-05-04 15:11 30.68230 -82.02905 7369 ft 286 kts 193°
2026-05-04 15:11 30.66283 -82.03400 7018 ft 287 kts 193°
2026-05-04 15:11 30.64323 -82.03906 6652 ft 289 kts 193°
2026-05-04 15:12 30.62356 -82.04417 6282 ft 290 kts 193°
2026-05-04 15:12 30.60389 -82.04937 5905 ft 290 kts 193°
2026-05-04 15:12 30.58421 -82.05471 5528 ft 290 kts 192°
2026-05-04 15:12 30.56422 -82.05729 5133 ft 289 kts 175°
2026-05-04 15:13 30.54435 -82.05485 4810 ft 285 kts 173°
2026-05-04 15:13 30.52495 -82.05323 4401 ft 283 kts 174°
2026-05-04 15:13 30.50519 -82.05178 4081 ft 283 kts 174°
2026-05-04 15:13 30.48567 -82.04991 3826 ft 278 kts 168°
2026-05-04 15:14 30.46825 -82.04155 3595 ft 267 kts 142°
2026-05-04 15:14 30.45425 -82.02910 3696 ft 245 kts 142°
2026-05-04 15:14 30.44157 -82.01703 3591 ft 227 kts 127°
2026-05-04 15:14 30.43584 -82.00141 3793 ft 199 kts 102°
2026-05-04 15:15 30.43377 -81.98602 3598 ft 186 kts 86°
2026-05-04 15:15 30.43682 -81.97204 3406 ft 175 kts 74°
2026-05-04 15:15 30.44006 -81.95884 3205 ft 168 kts 75°
2026-05-04 15:16 30.44498 -81.93134 2895 ft 182 kts 83°
2026-05-04 15:16 30.44651 -81.91678 2728 ft 189 kts 85°
2026-05-04 15:16 30.44855 -81.88629 2462 ft 193 kts 83°
2026-05-04 15:17 30.45018 -81.87060 2276 ft 201 kts 84°
2026-05-04 15:17 30.45503 -81.83873 2063 ft 199 kts 76°
2026-05-04 15:17 30.45889 -81.82371 1918 ft 188 kts 72°
2026-05-04 15:18 30.46269 -81.80950 1680 ft 183 kts 73°
2026-05-04 15:18 30.46660 -81.79616 1512 ft 162 kts 71°
2026-05-04 15:18 30.47030 -81.78420 1237 ft 158 kts 71°
2026-05-04 15:19 30.47766 -81.75997 1008 ft 158 kts 71°
2026-05-04 15:19 30.48155 -81.74767 828 ft 164 kts 70°
2026-05-04 15:19 30.48932 -81.72215 354 ft 170 kts 71°
2026-05-04 15:20 30.49348 -81.70906 203 ft 171 kts 71°
2026-05-04 15:20 30.49730 -81.69649 52 ft 160 kts 71°
2026-05-04 15:20 30.50064 -81.68545 37 ft 120 kts 71°
2026-05-04 15:20 30.50270 -81.67877 37 ft 59 kts 71°
2026-05-04 15:21 30.50330 -81.67640 34 ft 19 kts 102°
2026-05-04 15:21 30.50258 -81.67579 32 ft 0 kts 161°
2026-05-04 15:21 30.50220 -81.67569 31 ft 15 kts 179°
2026-05-04 15:22 30.50151 -81.67701 33 ft 22 kts 251°
2026-05-04 15:22 30.50100 -81.67864 38 ft 21 kts 250°
2026-05-04 15:22 30.50035 -81.68075 38 ft 16 kts 251°
2026-05-04 15:23 30.49993 -81.68213 38 ft 7 kts 250°
2026-05-04 15:23 30.49963 -81.68311 35 ft 20 kts 250°
2026-05-04 15:23 30.49924 -81.68417 34 ft 12 kts 231°
2026-05-04 15:23 30.49846 -81.68453 35 ft 12 kts 192°
2026-05-04 15:24 30.49666 -81.68493 35 ft 19 kts 190°
2026-05-04 15:24 30.49493 -81.68527 37 ft 10 kts 175°
2026-05-04 15:25 30.49459 -81.68529 38 ft 0 kts 195°
2026-05-04 15:26 30.49457 -81.68530 38 ft 3 kts 198°
2026-05-04 15:26 30.49401 -81.68555 38 ft 4 kts 201°
2026-05-04 15:27 30.49400 -81.68555 38 ft 0 kts 201°